Location: Buckeye Ditch
(40.9104°N, 122.9517°W)
Time: 17:11:19
(UTC+00:00)

Transit 4A - All Passes

Search period start: 19 May 2025 00:00
Search period end: 29 May 2025 00:00
Orbit: 865 x 977 km, 66.8° (Epoch: 18 May)

Date Brightness Start Highest point End Pass type
(mag) Time Alt. Az. Time Alt. Az. Time Alt. Az.
19 May - 00:51:17 10° ESE 00:52:47 11° E 00:54:17 10° E daylight
19 May - 02:31:43 10° SSW 02:38:04 75° ESE 02:44:23 10° NNE daylight
19 May - 04:20:06 10° W 04:25:03 23° NW 04:29:57 10° N visible
19 May - 09:50:02 10° N 09:53:41 16° NE 09:57:17 10° ENE visible
19 May - 11:35:03 10° NNW 11:41:06 76° ENE 11:46:57 10° SE visible
19 May - 13:23:11 10° WNW 13:26:37 16° WSW 13:30:01 10° SW daylight
20 May - 00:57:17 10° SE 01:01:17 18° ESE 01:05:15 10° ENE daylight
20 May - 02:40:31 10° SSW 02:46:54 78° WNW 02:53:14 10° NNE daylight
20 May - 04:30:11 10° W 04:34:16 17° NW 04:38:19 10° N visible
20 May - 09:58:22 10° N 10:02:56 22° NE 10:07:23 10° E visible
20 May - 11:43:54 10° NNW 11:49:54 75° WSW 11:55:44 10° SSE visible
21 May - 01:04:42 10° SSE 01:09:51 26° ESE 01:14:56 10° NE daylight
21 May - 02:49:34 10° SW 02:55:48 55° NW 03:01:59 10° NNE daylight
21 May - 04:40:43 10° WNW 04:43:35 13° NW 04:46:25 10° N visible
21 May - 10:06:52 10° NNW 10:12:04 29° NE 10:17:09 10° ESE visible
21 May - 11:52:52 10° NW 11:58:38 50° WSW 12:04:14 10° S visible
22 May - 01:12:39 10° S 01:18:29 39° ESE 01:24:15 10° NE daylight
22 May - 02:58:53 10° WSW 03:04:47 39° NW 03:10:39 10° NNE daylight
22 May - 10:15:27 10° NNW 10:21:08 40° NE 10:26:38 10° ESE visible
22 May - 12:02:02 10° NW 12:07:18 33° WSW 12:12:27 10° S visible
23 May - 01:20:58 10° S 01:27:11 57° ESE 01:33:20 10° NE daylight
23 May - 03:08:26 10° WSW 03:13:51 29° NW 03:19:13 10° NNE daylight
23 May - 08:39:39 10° N 08:42:23 13° NE 08:45:03 10° ENE visible
23 May - 10:24:09 10° NNW 10:30:05 58° ENE 10:35:51 10° SE visible
23 May - 12:11:27 10° WNW 12:15:53 22° WSW 12:20:13 10° SSW visible
23 May - 23:48:06 10° SE 23:50:34 12° E 23:53:02 10° ENE daylight
24 May - 01:29:34 10° SSW 01:35:57 82° ESE 01:42:16 10° NNE daylight
24 May - 03:18:17 10° W 03:23:00 21° NW 03:27:42 10° N daylight
24 May - 08:47:46 10° N 08:51:41 17° NE 08:55:30 10° E visible
24 May - 10:32:55 10° NNW 10:38:58 84° ENE 10:44:49 10° SSE visible
24 May - 12:21:29 10° WNW 12:24:24 14° WSW 12:27:17 10° SW daylight
24 May - 23:54:43 10° SSE 23:59:05 20° ESE 00:03:25 10° ENE daylight
25 May - 01:38:27 10° SW 01:44:48 71° WNW 01:51:05 10° NNE daylight
25 May - 03:28:28 10° WNW 03:32:16 16° NW 03:36:01 10° N daylight
25 May - 08:56:09 10° N 09:00:53 23° NE 09:05:30 10° E visible
25 May - 10:41:49 10° NW 10:47:45 67° WSW 10:53:31 10° SSE visible
26 May - 00:02:19 10° SSE 00:07:40 29° ESE 00:12:58 10° NE daylight
26 May - 01:47:33 10° SW 01:53:43 50° NW 01:59:49 10° NNE daylight
26 May - 03:39:12 10° NW 03:41:36 12° NNW 03:43:59 10° N daylight
26 May - 09:04:40 10° NNW 09:10:00 32° NE 09:15:12 10° ESE visible
26 May - 10:50:50 10° NW 10:56:28 45° WSW 11:01:57 10° S visible
27 May - 00:10:23 10° S 00:16:19 43° ESE 00:22:12 10° NE daylight
27 May - 01:56:56 10° WSW 02:02:43 36° NW 02:08:27 10° NNE daylight
27 May - 07:29:53 10° NNE 07:30:59 10° NNE 07:32:05 10° NE visible
27 May - 09:13:17 10° NNW 09:19:02 44° NE 09:24:36 10° SE visible
27 May - 11:00:02 10° NW 11:05:06 30° WSW 11:10:04 10° SSW visible
28 May - 00:18:46 10° SSW 00:25:02 63° ESE 00:31:14 10° NE daylight
28 May - 02:06:34 10° WSW 02:11:48 27° NW 02:17:00 10° N daylight
28 May - 07:37:19 10° N 07:40:22 14° NE 07:43:22 10° ENE visible
28 May - 09:22:00 10° NNW 09:27:58 64° ENE 09:33:45 10° SE visible
28 May - 11:09:34 10° WNW 11:13:40 20° WSW 11:17:42 10° SSW visible
28 May - 22:45:15 10° SE 22:48:21 14° ESE 22:51:27 10° ENE daylight
